Location: Ferma
(41.9500°N, 44.5167°E)
Time: 13:30:41
(UTC+00:00)

Cosmos 1844 Rocket - Pass Details

Date: 24 October 2021
Orbit: 826 x 843 km, 71.0° (Epoch: 07 December)

Event Time Altitude Azimuth Distance (km) Brightness Sun altitude
Rises 15:41:29 0° 338° (NNW) 3,373 6.1 -18.2°
Reaches altitude 10° 15:43:58 10° 343° (NNW) 2,435 5.3 -18.7°
Maximum altitude 15:49:29 60° 63° (ENE) 941 2.6 -19.7°
Enters shadow 15:52:08 30° 132° (SE) 1,432 3.5 -20.2°
